This is the latest recevied weather packets stored in our database for station/object PA3DZX-13. If no packets are shown the sender has not sent any weather packets the latest 10 day(s).
| Time | Temp. | Humidity | Pressure | Rain* | Wind** | Luminosity | Snow |
|---|---|---|---|---|---|---|---|
| 1777636314 | 20.56° C | 33% | 1025.7 hPa | 0 mm | - | - | - |
| 1777635415 | 20° C | 32% | 1025.9 hPa | 0 mm | - | - | - |
| 1777634514 | 20.56° C | 33% | 1026 hPa | 0 mm | - | - | - |
| 1777633614 | 20° C | 33% | 1026.3 hPa | 0 mm | - | - | - |
| 1777632714 | 20° C | 33% | 1026.4 hPa | 0 mm | - | - | - |
| 1777631815 | 18.89° C | 34% | 1026.5 hPa | 0 mm | - | - | - |
| 1777630913 | 18.89° C | 34% | 1026.6 hPa | 0 mm | - | - | - |
| 1777630014 | 18.89° C | 35% | 1026.9 hPa | 0 mm | - | - | - |
| 1777629113 | 17.78° C | 35% | 1027.2 hPa | 0 mm | - | - | - |
| 1777628213 | 17.78° C | 35% | 1027.2 hPa | 0 mm | - | - | - |
| 1777627313 | 17.78° C | 35% | 1027.3 hPa | 0 mm | - | - | - |
| 1777626413 | 17.78° C | 35% | 1027.4 hPa | 0 mm | - | - | - |
| 1777625512 | 16.67° C | 35% | 1027.4 hPa | 0 mm | - | - | - |
| 1777624613 | 16.67° C | 37% | 1027.6 hPa | 0 mm | - | - | - |
| 1777623711 | 15.56° C | 38% | 1027.6 hPa | 0 mm | - | - | - |
| 1777622811 | 15.56° C | 41% | 1027.7 hPa | 0 mm | - | - | - |
| 1777621910 | 15° C | 41% | 1027.7 hPa | 0 mm | - | - | - |
| 1777621011 | 15° C | 45% | 1027.7 hPa | 0 mm | - | - | - |
| 1777620110 | 13.89° C | 49% | 1027.7 hPa | 0 mm | - | - | - |
| 1777619210 | 12.78° C | 51% | 1027.8 hPa | 0 mm | - | - | - |
| 1777618309 | 11.67° C | 53% | 1027.9 hPa | 0 mm | - | - | - |
| 1777617410 | 11.67° C | 54% | 1027.9 hPa | 0 mm | - | - | - |
| 1777616509 | 10.56° C | 56% | 1027.9 hPa | 0 mm | - | - | - |
| 1777615610 | 10° C | 59% | 1027.9 hPa | 0 mm | - | - | - |
| 1777614709 | 10° C | 60% | 1027.9 hPa | 0 mm | - | - | - |
* Rain latest hour (hover to see other rain measurements)
** Current wind speed in m/s (hover to see current wind gust speed)